Location: Krakow
(50.0830°N, 19.9170°E)
Time: 11:06:19
(UTC+01:00)

Transit 2A - Pass Details

Date: 13 February 2023
Orbit: 591 x 964 km, 66.7° (Epoch: 21 March)

Event Time Altitude Azimuth Distance (km) Brightness Sun altitude
Rises 18:34:17 0° 301° (WNW) 3,309 10.3 -16.5°
Reaches altitude 10° 18:37:45 10° 324° (NW) 2,459 9.1 -17.0°
Maximum altitude 18:41:03 15° 0° (N) 2,166 8.3 -17.6°
Drops below altitude 10° 18:44:30 10° 35° (NE) 2,593 8.4 -18.1°
Enters shadow 18:44:31 10° 35° (NE) 2,596 8.4 -18.1°
Sets 18:48:19 0° 57° (ENE) 3,592 - -18.7°
